Temp
20 21 21 21 21 21 22 22 22 23 24 24 24 24 26 27 24 23 27 28 26 28 33 33 34 35 34 34 34 33 33 32 31 30 30 30 31 31 30 29 29 29 29 29 29 29 29 30 30 30 30 30 30 29 29 29 29 29 28 27 27 27 26 26 26 25 25 25 24 24 24 24 24 24 24 24 24 24 23 23 23 23 23 23 23 23 23
20 21 21 21 21 21 21 22 22 23 23 24 24 24 26 27 26 27 29 28 27 30 33 33 35 35 34 34 33 31 31 32 32 31 31 32 32 31 31 30 29 29 29 29 29 29 29 29 30 30 30 30 30 30 30 29 29 29 28 27 27 27 27 26 26 25 25 25 24 24 24 24 24 24 24 23 23 23 23 23 23 23 23 23 23 23 22
20 21 21 21 21 21 21 22 23 23 23 24 24 25 26 26 25 27 29 27 27 30 31 32 33 32 31 32 32 32 32 31 31 32 34 35 35 32 31 30 29 29 29 29 29 29 28 29 29 30 30 30 30 30 30 30 29 29 29 28 28 27 27 26 26 26 25 25 24 24 24 24 24 24 23 23 23 23 23 23 23 23 23 23 23 23 23
20 21 21 21 21 22 22 22 23 24 24 24 25 26 26 26 26 26 26 25 27 30 31 31 31 30 30 31 31 32 32 31 31 33 35 36 36 33 29 28 28 28 28 28 28 29 29 29 29 29 29 30 30 30 30 30 30 29 29 28 28 27 27 26 26 26 25 25 25 24 24 24 24 23 23 23 23 23 23 23 23 23 23 23 23 23 23
19 21 21 21 21 21 21 22 23 24 25 25 26 27 28 28 28 26 25 26 30 32 31 31 32 32 32 32 32 33 33 32 32 33 33 34 34 32 28 27 27 28 29 29 29 29 30 30 30 30 30 30 30 30 30 30 30 30 29 29 28 27 27 27 26 26 25 25 25 24 24 24 24 23 23 23 23 23 23 23 23 23 23 23 23 23 23
19 20 20 21 21 21 21 22 23 23 24 24 24 25 27 29 29 29 29 30 31 31 31 31 32 32 33 33 33 32 31 31 31 32 32 31 31 29 27 27 27 28 28 29 29 29 30 30 30 30 30 30 30 30 30 29 29 29 29 29 28 28 27 27 26 26 25 25 25 24 24 24 24 24 23 23 23 23 23 23 23 23 23 23 23 23 23
19 20 20 20 20 21 22 23 23 22 23 22 22 23 25 26 27 28 29 30 31 31 31 31 32 33 32 31 29 28 27 27 28 30 30 28 28 27 26 26 26 25 25 26 28 29 30 30 30 30 30 30 30 30 30 29 29 29 29 29 28 28 27 27 26 26 25 25 25 24 24 24 24 24 24 23 23 23 24 24 23 23 23 23 23 23 23
19 19 19 19 20 21 23 23 22 22 22 22 22 24 24 23 22 23 25 26 28 29 30 31 30 30 29 27 26 25 25 24 25 27 28 27 26 25 25 24 24 24 24 25 26 28 29 30 30 30 30 30 30 30 30 29 29 29 28 28 28 28 27 27 26 26 25 25 25 24 24 24 24 24 24 23 23 23 24 24 24 24 24 23 23 23 23
19 19 19 20 20 21 22 23 22 21 22 21 21 22 23 22 20 21 21 22 24 25 27 28 28 27 28 28 27 26 25 24 24 24 25 25 24 24 24 23 23 23 24 24 24 26 28 29 30 30 31 31 31 30 30 30 29 28 28 28 28 27 27 27 26 26 25 25 25 25 24 24 24 24 24 24 23 23 24 24 24 24 24 24 24 24 23
19 19 19 20 20 20 21 22 21 21 21 21 21 21 22 21 20 20 20 20 22 23 24 25 26 26 27 29 30 28 25 24 23 23 23 23 23 23 23 23 24 24 24 24 24 25 27 29 30 30 30 30 30 30 30 29 29 28 28 28 27 27 27 27 26 26 26 25 25 25 24 24 24 24 24 24 24 24 24 24 24 24 24 24 24 24 24
18 18 19 19 20 21 21 21 21 21 21 21 21 21 22 20 20 20 20 20 21 22 22 23 25 27 29 31 31 28 25 23 23 23 22 22 22 22 23 23 23 24 23 24 25 26 27 28 29 29 29 30 29 29 29 29 28 28 28 28 28 27 27 27 26 26 26 25 25 25 25 25 25 24 24 24 24 24 24 24 24 25 25 25 24 24 24
17 17 18 19 20 21 22 21 21 21 21 20 21 22 21 19 18 19 19 19 20 20 20 22 24 27 29 29 27 24 23 22 22 21 21 21 21 22 23 23 23 23 23 24 26 27 27 27 28 28 28 29 29 29 28 28 29 29 28 28 28 27 27 27 26 26 26 25 25 25 25 25 25 25 24 24 24 24 24 24 25 25 25 25 25 25 24
16 16 17 19 20 22 22 22 22 22 21 21 21 21 20 18 18 19 19 19 19 19 19 22 24 24 24 23 22 21 21 21 20 20 20 21 21 21 22 22 22 23 24 24 25 25 24 24 26 27 28 28 28 28 28 28 29 29 28 28 27 27 27 27 27 26 26 25 25 25 25 25 25 25 25 25 24 24 24 25 25 25 25 25 25 25 25
15 16 17 18 19 21 22 22 22 22 22 21 21 20 19 18 18 19 19 19 18 18 18 21 22 21 20 20 20 20 20 20 20 20 20 20 21 21 21 21 21 23 24 24 23 23 23 23 25 26 27 28 28 27 28 28 28 28 28 28 28 27 27 27 27 26 26 26 25 25 25 25 25 25 25 25 25 24 25 25 25 25 25 25 25 25 25
15 15 16 16 17 20 22 22 21 22 22 21 20 20 19 19 19 18 18 18 18 18 18 19 20 20 20 20 19 19 19 19 19 19 19 19 19 20 21 21 21 22 23 23 22 22 22 22 23 25 27 27 27 27 27 27 27 27 27 27 27 27 27 27 26 26 26 26 26 25 25 25 25 25 25 25 25 24 24 25 25 25 24 24 24 25 25
15 15 16 17 17 18 20 21 22 21 21 20 19 19 19 19 18 18 18 18 18 18 18 19 20 20 20 19 19 18 18 18 18 18 18 19 19 20 20 21 21 21 22 22 21 21 21 20 21 23 25 26 26 25 25 24 25 26 26 27 27 27 27 27 26 26 26 26 26 25 25 25 25 25 25 25 24 24 24 24 25 24 24 24 24 24 25
14 15 16 17 17 17 18 19 20 20 19 19 19 19 19 19 18 18 18 18 18 18 18 19 19 19 19 19 18 18 18 18 18 18 18 19 19 20 20 20 20 20 21 21 21 21 21 20 20 20 22 23 23 23 22 22 24 25 25 26 26 26 26 26 26 26 26 26 26 25 25 25 25 25 25 25 25 24 24 24 25 25 25 24 24 24 24
13 14 15 16 16 17 18 19 19 19 19 18 18 18 18 18 18 18 18 18 18 18 18 18 19 18 18 18 18 18 18 18 18 18 18 19 19 20 20 20 20 20 21 21 21 21 21 20 20 20 20 20 21 20 20 21 22 23 24 25 25 26 26 26 26 26 26 26 26 25 25 25 25 25 25 25 25 25 25 25 25 25 25 25 25 24 24
12 13 15 17 17 17 17 17 18 19 19 18 18 18 18 18 18 18 18 18 18 18 18 18 18 18 18 18 18 18 18 17 17 18 18 19 19 19 19 20 20 21 21 21 21 21 21 21 20 20 20 20 19 20 20 20 21 22 23 24 24 25 25 26 26 26 26 26 26 26 26 26 26 25 25 25 25 25 25 25 25 25 25 25 25 25 24
12 13 14 16 15 15 15 15 17 18 18 18 18 17 17 18 18 18 18 18 18 18 18 18 18 18 18 18 18 18 17 17 17 18 18 19 19 19 19 19 20 21 21 21 21 21 21 21 21 20 20 20 19 20 20 20 21 22 22 23 24 24 24 25 25 25 25 26 26 26 26 26 26 26 26 25 25 25 25 25 26 25 25 25 25 25 25
12 12 13 14 15 15 16 16 17 18 19 18 18 18 18 18 18 18 18 18 18 18 18 18 18 18 18 18 18 18 18 17 17 18 18 19 19 19 19 19 20 20 20 21 21 21 21 21 20 20 20 20 19 20 20 20 20 21 22 22 23 23 24 24 24 24 25 25 26 26 26 26 26 26 26 25 25 25 25 25 25 26 26 26 26 25 25
11 12 13 14 15 15 15 15 16 17 18 19 19 18 18 18 17 17 18 18 18 18 18 17 18 17 17 17 17 18 18 17 17 17 18 18 19 20 20 20 20 20 20 20 20 20 21 20 20 20 20 19 19 20 20 20 20 20 21 21 22 22 22 22 23 23 24 25 25 25 25 26 26 26 25 25 25 25 25 25 25 25 26 26 26 26 26
12 13 14 14 13 13 14 14 15 16 18 19 19 19 19 19 18 17 17 18 18 18 18 17 17 17 16 16 17 18 18 18 18 18 18 18 18 18 19 19 19 20 20 20 20 20 20 20 20 20 20 19 19 19 19 20 20 21 20 21 21 21 21 21 21 21 22 22 22 23 23 24 25 25 25 25 25 25 25 25 25 25 25 25 25 25 25
12 13 13 13 13 13 13 14 15 15 16 18 19 18 19 19 18 17 17 17 17 17 17 17 17 17 17 16 17 17 18 18 18 18 18 18 18 18 18 19 19 19 19 20 20 20 20 20 20 20 20 20 19 19 19 19 20 20 20 20 21 20 20 20 20 20 20 20 20 21 21 21 22 23 23 24 24 24 25 25 25 25 24 24 24 24 25
12 12 13 13 13 13 14 14 15 15 16 17 18 18 18 18 17 16 17 17 17 17 17 17 17 17 17 17 17 17 18 18 18 18 18 19 19 18 18 18 18 18 18 19 19 19 20 20 20 20 20 20 20 20 20 19 19 19 20 20 20 20 20 20 20 20 20 20 20 20 20 20 20 20 21 22 22 23 23 24 24 24 24 23 23 24 24
12 12 13 13 13 13 14 14 14 16 16 17 17 17 17 17 17 16 16 16 16 16 16 17 17 17 17 17 17 17 17 18 17 18 18 19 19 19 19 18 18 18 18 18 18 18 18 18 19 19 19 19 20 20 20 20 20 19 19 20 20 20 19 19 20 19 19 19 19 19 19 19 19 19 19 20 20 21 21 22 22 23 22 22 22 22 22
12 12 12 12 12 13 14 14 15 16 17 17 17 17 16 16 16 16 16 16 16 16 16 17 17 17 17 16 17 17 17 17 17 17 18 18 19 19 18 18 18 17 17 17 17 17 17 17 18 18 18 18 19 20 20 21 20 20 19 20 20 19 19 19 19 19 19 18 18 18 18 18 18 18 19 19 19 19 20 20 21 21 21 21 21 21 22
12 12 12 12 13 14 15 15 15 16 16 16 17 17 16 16 16 16 16 16 16 16 16 16 16 16 16 16 17 17 17 17 16 17 17 17 18 18 18 18 18 17 17 17 17 17 17 17 18 18 18 18 18 19 20 20 20 20 20 20 20 19 19 19 19 19 18 18 18 17 17 18 18 18 18 18 18 18 18 18 18 19 19 20 20 21 21
12 13 13 13 14 14 15 15 15 15 15 16 16 16 16 16 16 16 17 17 16 16 16 16 16 15 16 16 17 17 16 16 16 16 16 17 17 17 18 18 18 18 18 18 18 18 17 17 17 17 17 17 18 18 19 20 20 20 20 19 19 19 19 18 18 18 18 18 18 17 17 17 18 18 18 18 17 17 17 17 17 17 17 17 18 18 18
13 13 13 14 14 14 14 14 15 15 16 16 16 16 16 17 17 16 16 17 17 16 16 16 16 16 16 16 16 16 16 16 16 16 17 17 17 17 17 17 17 17 17 17 18 18 18 17 17 17 17 17 17 18 18 19 20 19 19 18 18 18 18 18 18 18 19 18 18 17 17 18 18 18 18 18 18 18 18 17 17 16 15 15 15 15 14
13 13 13 14 14 14 14 14 15 15 15 16 16 16 16 17 17 16 16 16 16 16 15 15 16 16 16 16 16 15 15 16 17 17 17 17 16 16 17 17 17 17 17 17 17 18 18 17 17 17 17 17 17 17 18 19 19 19 19 18 18 18 18 18 18 18 18 18 18 18 18 18 18 18 18 18 18 18 18 17 17 16 15 14 13 13 12
13 13 13 13 13 14 14 14 15 15 15 16 16 16 16 16 17 16 16 15 15 15 15 16 16 16 15 15 15 15 15 16 16 17 17 16 16 16 16 17 17 17 17 17 17 17 17 17 17 17 17 17 17 17 17 18 18 19 19 19 18 18 18 18 18 18 18 18 18 19 18 18 18 18 18 18 18 18 17 17 17 16 15 14 14 13 12
13 14 14 13 14 14 14 14 14 15 15 16 16 16 16 17 16 16 15 15 15 15 15 15 15 15 15 15 15 16 16 16 16 16 16 16 16 16 16 17 17 17 17 17 17 17 17 17 17 17 17 17 17 17 17 17 17 18 18 19 19 18 18 18 18 18 18 18 18 18 18 18 18 18 18 17 17 17 17 16 16 16 15 15 16 15 14
14 14 14 14 15 15 15 15 15 15 15 15 15 16 16 16 16 16 15 15 15 15 15 16 16 16 16 15 16 16 16 16 15 15 15 15 15 15 16 16 17 17 17 17 17 17 17 17 17 17 17 17 17 17 17 17 17 17 17 18 18 18 18 18 18 18 18 18 18 18 18 18 18 18 18 17 17 17 16 16 16 15 14 14 15 15 15
15 15 15 15 15 15 15 15 15 15 15 15 15 15 16 16 16 16 16 16 16 16 16 16 16 16 16 16 16 16 16 15 15 15 15 15 15 15 16 16 16 17 17 17 17 17 17 17 17 17 17 17 17 16 16 16 16 16 16 17 17 18 18 18 18 18 18 18 18 18 18 18 17 17 17 17 17 17 16 16 15 14 13 13 13 14 14
15 15 15 15 15 15 15 15 15 15 15 15 15 16 16 16 16 15 15 16 16 16 16 16 16 16 16 16 16 16 16 16 15 15 15 15 15 15 16 16 16 17 17 17 17 17 17 16 16 16 16 17 17 16 16 16 16 16 16 16 17 17 17 17 17 17 18 18 18 18 17 17 17 17 17 17 17 17 17 16 16 15 14 13 13 14 14
14 14 14 14 15 15 15 15 16 16 16 15 15 15 15 15 15 15 15 15 15 15 15 15 15 15 15 15 15 15 15 16 16 16 15 15 15 15 16 16 16 16 17 16 16 16 16 16 16 16 16 17 16 16 16 15 15 16 16 16 17 17 18 18 17 17 17 18 17 17 17 17 17 17 17 17 17 17 17 17 16 15 14 13 13 14 14
13 13 13 13 13 14 14 14 15 15 15 15 14 14 14 14 14 14 14 14 14 14 15 15 15 15 15 15 15 15 15 15 15 15 15 15 15 15 15 15 15 15 16 15 15 15 15 15 15 15 16 16 16 16 15 15 15 16 16 16 17 17 17 17 17 16 16 17 17 17 17 17 17 17 17 17 17 17 17 16 16 15 15 14 13 14 14
12 12 13 13 13 13 13 13 14 14 14 14 14 14 14 14 14 14 14 14 14 15 15 15 15 15 15 15 15 15 15 15 15 15 15 15 15 15 15 14 14 14 14 15 15 15 15 15 15 15 14 15 15 16 15 15 15 16 16 16 17 17 17 16 16 16 16 16 16 16 17 17 17 17 17 16 16 16 15 15 15 14 14 14 13 14 14
12 12 12 12 12 12 12 12 12 13 13 13 13 13 13 13 13 13 13 14 14 14 14 15 15 15 15 15 14 14 14 14 14 14 14 15 15 15 15 14 14 14 14 14 14 14 14 14 14 14 14 14 15 15 16 16 15 15 16 16 16 16 16 16 16 16 16 16 16 16 16 16 16 16 15 15 15 15 15 14 14 14 14 14 13 13 14
12 12 12 12 12 12 12 12 12 12 12 12 12 12 12 12 13 12 13 13 13 13 14 14 14 14 14 14 14 14 14 13 13 13 14 14 15 15 14 14 13 13 13 13 13 14 14 14 14 14 14 14 14 15 16 16 15 15 15 15 15 15 15 15 15 16 16 16 16 15 15 15 15 15 14 14 14 15 14 14 13 13 13 13 13 13 14
11 12 12 11 11 11 11 11 11 11 11 11 11 12 12 12 12 12 12 12 12 13 13 13 13 13 13 13 14 14 14 14 13 13 13 13 14 14 14 13 13 13 13 13 13 13 13 13 13 13 13 13 14 15 15 15 14 14 14 14 14 14 14 14 14 14 15 15 15 15 15 15 16 15 15 14 14 14 13 14 13 12 12 13 13 13 14
11 11 11 11 11 11 11 11 11 11 10 10 11 11 11 11 11 11 11 11 12 12 12 12 12 12 12 13 13 13 13 13 14 14 13 13 13 13 13 13 13 12 12 13 13 13 13 13 13 13 13 13 14 15 15 14 13 13 14 13 13 13 13 13 13 13 13 13 14 14 14 14 15 15 14 14 14 13 13 14 14 13 12 12 13 13 13
11 11 11 11 11 11 11 10 10 10 10 10 10 10 10 10 11 11 11 11 11 11 11 12 12 12 12 12 12 12 12 13 13 14 14 14 13 12 12 12 12 12 12 12 12 12 12 12 12 13 13 14 14 14 13 13 13 13 13 13 13 13 13 12 12 12 12 12 12 12 12 12 13 13 13 13 13 13 13 13 13 13 12 12 12 13 13
11 11 11 11 11 11 11 11 10 10 10 10 10 10 10 10 10 10 10 10 10 11 11 11 11 11 12 12 11 11 11 11 12 12 13 13 13 12 12 12 12 12 12 12 12 12 12 11 12 13 13 13 13 13 12 12 12 12 12 12 12 12 12 12 12 11 11 11 11 11 11 11 12 12 12 12 12 13 13 13 13 13 13 13 12 12 13
10 10 11 11 11 11 11 11 11 10 10 10 10 10 10 9 9 9 9 9 10 10 10 10 10 10 11 11 11 11 11 11 11 11 11 12 12 11 11 11 11 11 11 11 11 11 11 11 12 13 13 13 12 12 12 12 12 11 11 11 12 12 12 12 12 11 11 11 10 10 10 11 11 11 11 11 11 11 11 12 12 13 13 14 13 12 12
10 10 10 10 10 10 11 11 11 11 11 10 10 10 10 9 9 9 9 9 9 9 9 9 9 9 10 10 10 11 11 11 11 10 10 11 11 11 10 10 10 10 10 10 10 10 10 11 12 12 12 12 11 11 11 11 11 11 11 11 11 11 11 11 11 11 11 11 10 10 10 10 10 10 11 11 10 10 10 10 10 11 12 13 13 13 13
10 10 10 10 10 10 10 10 10 10 10 10 10 10 9 9 9 9 9 9 9 9 9 9 9 9 9 9 9 9 10 11 11 10 10 10 10 10 10 9 10 10 10 10 10 10 10 11 11 11 11 11 11 11 11 11 11 11 11 10 10 10 10 10 10 10 10 10 10 10 10 10 9 9 10 10 9 9 9 10 10 10 11 11 11 11 12
10 10 10 10 10 10 10 10 10 10 10 10 10 10 9 9 9 9 9 9 9 9 9 9 8 8 8 9 9 9 9 9 9 9 9 9 9 9 9 9 9 9 9 9 9 9 9 10 10 10 10 10 10 10 10 10 10 10 10 10 10 9 9 9 9 9 9 10 10 10 10 10 9 9 9 9 9 9 9 9 9 9 10 10 10 10 10
9 10 10 9 9 9 9 9 9 9 9 9 9 9 9 9 10 9 9 9 9 9 9 9 9 8 8 8 8 8 8 8 8 8 8 8 8 8 8 8 8 8 8 8 8 8 8 9 9 9 9 9 9 9 9 9 9 9 9 9 9 9 8 8 8 8 8 9 9 9 9 9 9 9 9 9 8 8 9 9 9 9 9 9 9 9 9
9 9 9 9 9 9 8 8 9 9 8 8 9 9 9 9 9 9 8 9 9 9 9 9 8 8 8 8 8 8 8 8 8 8 8 7 7 7 7 7 7 7 7 7 7 7 7 7 8 8 8 8 8 8 8 8 8 8 8 8 8 8 8 8 8 8 8 8 8 8 8 8 8 8 8 8 8 8 8 8 8 8 9 9 9 9 9
9 9 9 9 9 9 8 8 8 8 8 8 8 8 8 8 8 8 8 8 8 8 8 8 8 8 8 8 8 8 8 8 7 7 7 7 7 7 7 7 7 7 7 7 7 7 7 7 7 7 7 7 8 8 7 7 8 8 7 7 7 7 7 7 7 7 7 7 7 7 7 7 7 7 7 7 7 7 7 7 7 7 7 8 8 8 8
Height
720 716 713 713 716 717 715 713 710 705 704 705 703 700 692 688 695 695 684 685 690 681 674 673 668 666 666 663 660 658 656 656 656 658 659 658 656 655 655 655 655 655 655 655 655 656 656 659 662 664 666 669 671 675 678 682 686 689 693 696 698 702 706 708 710 712 717 722 725 728 732 735 738 741 744 746 749 751 753 755 758 760 763 765 768 770 773
719 714 712 713 715 717 714 712 709 705 703 702 701 699 693 688 689 685 680 684 684 675 670 667 661 660 660 659 659 659 658 657 656 657 657 654 653 653 652 652 652 651 651 651 652 653 655 657 658 660 662 664 667 670 672 676 680 683 687 690 693 698 700 700 703 708 713 717 720 723 727 729 732 735 738 741 744 746 748 750 753 756 759 761 763 766 768
720 714 711 712 713 715 714 709 703 701 700 698 697 695 692 692 693 687 683 687 684 673 666 663 661 661 662 662 661 660 657 656 656 655 652 649 649 650 651 651 650 650 650 649 650 651 651 651 653 655 657 660 663 665 668 671 673 677 681 683 687 691 692 694 699 704 708 712 715 718 722 725 728 731 734 737 739 741 744 746 749 752 754 756 759 762 764
723 714 714 714 709 707 706 701 696 693 692 691 689 687 686 688 690 688 688 690 684 672 666 665 663 663 665 663 660 657 654 654 654 653 650 647 646 647 650 650 649 648 648 647 648 647 646 647 649 650 652 656 659 661 663 664 667 671 675 678 681 684 686 690 696 700 704 708 710 713 717 720 723 727 730 733 735 737 739 742 745 747 749 752 754 757 759
725 716 715 714 711 711 705 694 689 688 685 684 682 678 677 677 680 685 686 682 672 663 662 664 662 661 661 658 655 652 651 651 651 650 647 646 644 644 647 647 647 646 644 643 642 642 641 643 643 645 648 651 653 655 657 660 663 667 670 672 675 679 682 688 691 695 700 703 706 709 712 716 720 723 726 728 730 732 734 737 740 742 745 747 750 752 754
729 719 715 715 718 716 702 688 686 687 685 686 686 682 676 672 670 672 671 667 662 658 659 662 661 656 651 649 648 646 646 648 649 647 645 645 644 643 643 643 642 641 640 639 637 637 637 638 639 642 645 646 648 651 655 660 664 666 667 669 672 675 679 683 687 691 695 697 700 704 707 712 716 718 721 723 725 728 730 733 735 737 740 743 745 747 749
728 719 719 726 723 707 690 682 684 683 682 686 689 684 678 675 672 669 666 662 658 656 655 654 653 649 646 646 647 647 647 648 647 646 645 644 644 643 642 641 640 639 638 636 635 634 634 635 637 640 641 641 645 648 652 657 660 663 666 668 671 674 677 681 685 688 690 693 697 700 703 707 710 712 715 717 720 723 726 729 731 734 736 739 740 743 745
727 725 727 726 713 693 681 681 683 683 684 688 688 683 678 680 682 679 674 669 661 657 655 652 650 649 648 649 650 649 648 647 647 646 644 643 643 643 641 640 639 637 636 634 633 632 632 633 634 635 635 638 642 646 649 652 655 659 663 667 670 673 677 679 682 685 688 692 696 698 701 704 706 709 711 712 714 718 722 725 728 730 732 734 736 738 740
724 726 721 711 705 697 688 684 685 686 688 690 691 689 683 681 684 684 682 678 670 663 659 655 653 652 653 654 650 646 645 646 645 645 643 642 642 641 639 638 636 635 634 632 631 630 630 630 630 630 632 636 640 643 645 648 651 655 659 662 665 669 672 675 679 683 686 689 692 694 697 699 701 703 705 706 709 712 715 719 722 724 726 729 731 733 735
718 722 719 712 713 708 692 685 685 685 685 686 689 692 688 682 683 683 683 681 674 668 665 661 657 657 660 659 649 641 643 644 644 644 643 641 641 639 638 636 634 632 631 630 628 628 627 627 627 629 631 634 637 640 642 644 648 651 654 657 659 662 665 668 672 675 678 681 684 687 689 691 693 695 698 701 703 706 709 711 714 716 719 723 725 727 728
719 721 720 714 710 700 686 683 683 681 681 683 687 691 688 684 683 682 681 681 676 672 669 665 661 661 662 656 645 639 642 644 644 645 644 642 640 638 636 635 633 631 629 627 626 626 625 626 627 628 630 632 634 637 639 642 645 648 649 651 652 655 658 662 665 669 673 676 679 682 684 686 688 691 694 698 700 702 705 707 709 711 715 717 718 719 721
724 722 716 706 698 690 682 682 681 678 678 682 691 694 688 685 686 682 680 681 677 674 672 667 663 660 657 652 647 644 645 646 646 647 646 645 642 638 636 635 633 631 629 626 624 625 625 626 626 628 629 631 633 635 637 640 642 643 644 646 649 653 658 661 665 668 671 674 676 678 681 683 686 689 692 694 696 698 701 703 706 708 710 711 711 712 714
726 725 718 705 694 683 678 679 678 676 679 686 693 692 686 686 686 681 679 679 677 675 673 667 661 658 655 654 653 649 647 648 649 649 648 647 644 641 638 636 633 631 629 626 625 626 626 626 626 627 629 630 632 634 637 639 640 641 644 646 650 655 658 661 664 666 668 670 672 674 677 680 683 686 688 690 692 694 697 700 702 704 705 705 706 707 708
726 722 717 711 699 681 673 677 676 675 683 689 687 682 681 683 682 679 678 677 675 675 673 666 662 660 657 656 655 652 650 650 651 651 650 649 647 644 641 638 635 632 630 628 628 627 627 627 627 628 629 630 632 634 637 639 640 642 644 647 649 652 655 658 660 662 664 666 669 671 674 677 680 682 684 687 689 691 694 697 698 700 702 703 704 704 705
724 724 722 721 710 685 672 676 679 678 682 683 679 677 678 679 678 679 678 676 675 675 672 668 664 661 658 658 656 655 653 652 651 652 651 651 650 647 645 641 637 634 632 631 630 630 629 628 628 629 630 631 633 635 637 639 641 642 644 645 648 650 652 653 655 657 658 661 664 666 669 672 674 677 680 682 685 686 689 692 694 696 698 700 702 702 702
719 721 716 709 701 687 679 680 678 675 675 675 675 676 677 676 677 678 678 676 674 673 671 668 665 662 660 659 658 657 656 654 653 653 652 652 651 649 647 644 640 637 635 633 633 632 631 631 631 631 632 632 633 636 638 639 641 642 643 645 646 648 649 651 652 654 656 658 660 663 665 667 670 672 674 676 678 680 683 686 688 690 691 693 695 696 696
721 716 708 699 693 688 686 683 678 674 674 673 674 674 675 676 677 677 676 676 672 670 669 667 665 664 662 660 659 659 658 656 655 654 653 652 651 649 648 646 644 641 638 636 636 635 634 634 635 634 634 634 635 637 638 639 640 640 641 643 644 646 647 649 651 653 655 657 659 661 663 665 667 669 670 672 673 675 677 679 681 683 683 684 685 686 687
720 712 705 700 695 688 686 685 681 677 676 674 672 672 674 676 677 675 675 675 672 670 669 667 666 665 663 661 660 658 658 657 656 655 654 652 650 649 647 646 645 644 641 639 638 637 637 637 637 637 637 637 637 638 639 638 638 639 640 641 642 644 645 647 649 651 653 655 657 659 661 663 664 666 667 669 670 671 672 674 675 676 676 677 676 676 677
726 716 703 696 695 691 690 690 685 679 678 675 671 670 671 674 675 675 674 674 672 670 668 668 668 665 661 661 660 658 657 658 657 656 655 653 651 650 648 647 647 645 643 641 640 639 639 638 638 638 638 638 638 638 638 637 638 638 639 639 641 642 644 645 647 649 650 652 654 656 657 659 660 661 662 664 665 665 667 668 669 669 670 671 671 672 673
725 718 705 698 698 695 693 694 690 683 681 678 671 668 669 671 674 674 673 673 672 670 668 668 667 665 662 661 661 659 658 658 657 657 656 654 652 651 649 649 648 648 646 644 642 640 639 639 638 638 638 638 638 638 637 637 638 638 639 640 641 642 643 645 646 648 649 651 652 653 654 654 655 656 657 658 658 658 659 660 661 663 665 667 668 668 670
722 715 706 701 700 694 690 691 689 684 682 678 671 666 665 669 673 673 672 672 672 670 669 667 666 666 664 662 661 661 660 659 658 657 657 655 653 651 650 650 650 650 649 647 644 641 640 640 639 639 638 639 639 638 638 638 638 639 640 641 642 643 644 645 646 647 648 649 650 651 651 651 652 652 652 653 653 653 653 653 654 656 658 660 660 661 663
721 711 704 701 701 698 693 690 688 684 681 677 672 665 662 667 673 674 672 672 671 669 668 667 667 668 666 663 662 662 661 660 659 657 657 656 654 652 651 650 650 651 650 648 645 643 642 641 641 640 640 640 640 640 641 641 641 641 642 643 644 645 645 646 646 646 646 647 647 648 649 649 648 648 648 649 649 649 648 649 650 652 652 652 652 653 655
711 703 701 703 704 701 696 692 689 685 680 676 672 666 661 663 670 674 673 672 671 669 668 668 668 669 667 664 662 663 663 661 659 657 657 657 655 653 651 650 650 651 650 648 646 644 644 643 643 642 641 641 641 642 642 642 643 643 643 644 645 645 645 646 646 646 646 646 646 647 647 647 646 646 645 645 645 645 645 646 647 647 648 647 648 649 649
705 701 702 703 702 699 694 691 688 684 679 675 672 667 662 662 667 672 673 673 672 670 668 668 669 669 668 664 663 664 665 663 660 658 657 656 656 654 651 649 648 649 648 647 646 646 646 646 645 644 643 643 643 643 643 643 643 643 643 643 644 644 645 645 645 646 646 646 646 646 646 646 645 645 644 642 641 640 641 641 642 642 642 642 642 643 643
704 700 699 699 698 693 689 688 685 681 677 674 670 666 662 662 665 669 670 672 673 670 668 669 670 669 667 664 663 665 666 665 663 661 658 657 656 654 651 649 648 648 648 648 647 647 647 646 646 645 644 644 644 644 643 643 642 642 642 642 642 643 644 644 645 646 646 646 646 646 645 645 644 644 643 641 639 638 637 637 638 637 637 636 636 636 637
701 697 696 696 694 690 687 686 682 676 673 673 670 666 663 661 664 667 669 671 672 670 668 669 670 669 667 665 664 666 668 667 666 663 660 658 657 655 653 652 651 650 650 650 649 648 647 646 646 645 645 645 645 644 643 642 642 641 641 641 642 643 643 643 644 644 645 645 646 645 645 645 644 643 642 641 639 637 636 635 634 633 633 632 632 632 632
694 693 693 693 690 684 682 680 676 672 670 671 671 668 664 662 665 668 669 670 671 671 670 669 669 668 666 665 666 668 670 670 668 665 663 661 659 658 657 656 654 653 653 653 653 652 650 648 648 647 647 647 647 646 646 645 643 643 642 642 642 643 643 643 643 644 644 645 645 645 645 644 644 643 642 640 639 638 637 636 635 633 631 630 629 628 628
687 686 687 686 682 676 673 671 671 670 670 671 671 669 666 664 665 667 669 670 672 673 672 671 670 668 666 666 668 671 673 673 672 668 665 664 662 662 661 659 658 657 657 658 658 657 655 653 651 650 650 650 649 649 649 647 646 645 644 643 643 643 642 643 643 643 644 644 644 645 645 644 644 643 642 641 640 639 638 637 635 632 629 626 624 622 621
681 678 677 675 673 671 670 669 669 671 671 671 671 670 668 666 666 667 669 671 672 674 674 673 670 667 666 667 671 675 676 676 674 671 668 667 666 665 664 663 662 661 661 661 661 660 657 654 652 651 651 651 650 651 651 650 649 647 645 645 644 643 643 643 643 643 644 644 644 644 644 644 644 642 641 640 639 638 636 634 631 629 625 620 617 616 613
673 672 670 669 668 670 670 669 669 671 671 670 671 671 670 668 667 668 669 670 671 673 674 672 670 669 669 671 675 679 680 678 676 673 671 670 669 669 668 666 664 663 662 663 662 660 657 655 653 653 653 653 652 652 652 652 651 649 648 647 646 645 644 643 643 643 644 644 644 644 644 644 643 642 641 640 638 636 634 631 628 626 623 619 617 615 613
667 666 665 664 665 667 669 669 669 670 670 670 670 671 671 669 669 670 670 670 671 672 672 671 671 672 674 675 678 681 681 679 677 675 674 674 673 672 670 668 665 664 665 665 664 662 659 657 656 656 656 655 655 654 653 653 652 651 650 649 648 647 646 644 644 644 644 644 645 644 643 643 643 643 642 641 638 637 634 630 628 626 622 620 618 617 617
663 661 661 663 664 665 667 669 669 670 670 669 669 669 669 669 670 670 670 670 671 672 671 671 673 676 679 680 681 681 681 680 679 679 679 678 676 674 672 670 667 667 667 667 666 664 663 661 660 660 659 659 658 657 656 655 654 653 652 651 650 649 648 647 646 646 645 645 645 644 644 644 644 644 643 641 639 638 635 632 630 627 622 618 616 614 617
659 659 661 663 663 664 666 668 668 668 669 668 667 667 667 668 669 670 671 671 671 671 671 672 676 680 682 683 683 682 681 681 681 682 683 680 677 675 674 672 670 669 669 668 668 667 666 665 664 664 664 662 661 659 657 656 654 654 654 653 653 652 651 650 649 648 646 645 645 645 645 646 645 644 644 642 640 640 638 634 632 630 624 619 617 616 620
656 656 657 658 658 660 663 665 666 667 668 668 668 667 666 667 668 670 671 671 671 671 672 674 678 682 684 685 684 683 683 684 685 686 686 682 679 677 677 675 674 672 670 670 669 669 669 669 669 668 667 666 663 660 657 656 655 655 655 655 654 654 653 652 651 650 648 646 646 645 646 646 646 646 645 644 642 641 640 638 636 634 630 627 626 625 625
652 652 654 655 657 659 660 661 663 665 666 667 667 667 666 667 668 669 670 671 672 672 673 676 681 684 685 685 685 685 686 687 688 688 687 684 681 680 679 677 675 672 671 671 671 672 673 674 673 671 669 667 663 660 658 656 656 656 656 656 656 656 655 654 654 652 650 648 647 647 647 647 648 648 647 646 644 643 641 640 639 638 635 634 633 632 629
653 653 655 657 659 660 661 661 662 663 664 665 667 667 667 668 669 671 671 672 673 675 676 679 682 683 684 684 685 686 688 689 689 688 687 685 683 682 680 678 676 674 673 673 675 676 677 677 675 673 670 666 663 661 659 658 658 658 658 658 658 658 657 656 655 654 652 650 649 648 648 648 649 649 649 648 647 645 643 642 642 641 639 637 637 637 635
657 657 659 660 661 662 663 663 663 664 665 666 669 670 671 671 672 673 675 675 676 677 678 680 682 684 685 686 687 689 690 691 690 690 689 687 686 684 682 681 680 678 678 679 680 681 680 679 676 673 669 666 664 663 662 661 661 660 660 660 660 660 659 658 657 656 654 652 650 650 649 649 650 651 651 651 650 648 646 644 643 643 643 641 641 642 642
661 662 663 664 665 667 668 667 667 667 668 670 673 675 676 675 674 675 677 679 680 679 680 682 683 685 687 688 689 691 692 692 692 692 691 690 688 686 685 685 685 685 684 685 685 684 682 680 676 672 670 668 668 667 665 664 664 663 663 663 662 661 661 660 659 658 656 655 653 652 651 650 650 651 652 653 653 651 649 647 646 645 645 645 645 645 646
669 668 667 667 669 671 672 671 671 672 672 674 677 679 680 679 678 678 680 684 684 683 684 685 687 688 690 691 691 692 693 694 694 694 694 693 692 690 690 690 691 690 690 689 688 686 684 681 677 675 673 672 671 670 669 667 667 666 666 665 665 664 663 662 661 660 658 657 656 654 653 653 652 652 653 654 655 655 653 652 651 649 648 648 649 649 650
678 676 674 674 676 678 677 677 678 679 679 681 683 684 683 683 684 684 687 689 689 688 688 690 691 694 695 694 692 693 695 696 697 697 697 696 694 694 693 694 694 694 692 691 690 688 687 684 681 680 678 677 675 674 672 671 669 669 668 668 668 668 666 665 664 662 661 659 658 657 656 655 655 654 654 655 656 657 656 655 654 653 652 652 652 653 653
686 685 684 685 685 684 683 683 683 684 685 688 689 688 687 688 690 693 695 696 696 695 695 696 697 698 698 696 695 695 697 699 701 701 701 700 699 698 698 699 699 698 696 694 693 692 690 688 687 686 684 682 680 678 675 673 672 671 671 671 670 670 669 667 666 665 664 663 661 660 659 658 658 657 657 657 658 658 658 657 656 656 656 656 657 658 657
696 695 695 695 693 692 692 692 691 691 692 694 694 694 696 697 699 701 703 704 703 703 702 702 702 702 701 700 699 700 702 705 706 706 706 705 705 704 704 705 705 703 700 698 696 695 694 694 694 692 690 688 685 681 678 676 675 674 674 673 673 672 672 671 670 669 668 666 665 663 662 661 660 660 660 660 660 661 660 659 658 659 658 658 660 662 662
704 703 703 703 701 700 701 702 701 700 700 702 703 704 705 707 708 710 711 711 711 710 709 708 708 707 705 704 703 705 707 709 710 709 709 710 710 710 710 710 709 707 704 702 701 700 700 700 700 698 696 693 689 684 681 679 678 677 677 676 676 676 675 675 674 673 672 669 668 666 665 664 664 664 664 663 663 664 665 663 661 662 662 662 663 665 666
708 708 708 708 707 706 706 708 708 707 708 710 712 712 713 714 716 717 716 716 715 716 715 714 713 712 711 709 709 710 711 712 712 712 712 712 712 713 714 714 713 711 709 707 706 706 705 705 704 702 700 696 692 687 684 683 682 682 681 681 680 680 680 679 679 677 676 674 672 670 669 668 667 667 666 666 666 667 668 667 665 665 666 666 667 669 669
715 714 713 713 712 712 713 714 715 715 715 716 717 719 720 721 722 722 720 719 720 720 720 719 719 718 717 715 714 714 715 715 715 716 715 716 717 719 719 718 717 716 713 712 711 710 711 710 708 706 703 699 695 691 689 688 687 686 686 685 685 685 684 684 683 682 680 678 676 674 673 672 671 670 669 669 669 669 670 669 669 669 669 669 670 671 672
721 720 720 719 719 720 721 721 721 720 719 719 721 725 727 727 726 725 724 724 725 725 726 725 725 724 722 721 719 719 719 719 720 721 721 722 724 725 724 723 721 719 717 716 715 715 715 714 712 709 706 702 698 695 693 692 691 691 690 690 690 690 689 689 688 687 685 683 681 679 678 676 675 674 673 672 672 672 672 672 672 672 672 673 673 673 673
728 727 727 727 727 727 726 725 724 724 723 725 728 731 732 731 730 730 729 729 730 730 730 730 729 728 726 724 723 723 724 724 725 726 727 728 729 729 727 725 724 723 721 720 720 721 720 718 716 713 709 705 701 699 698 697 696 696 696 695 695 695 694 693 692 691 690 688 686 684 683 681 680 679 678 677 676 676 676 675 675 674 674 674 675 676 676
734 734 734 734 733 732 731 729 728 729 731 733 734 736 736 735 734 734 734 734 733 733 733 732 732 731 729 727 726 727 728 728 729 731 733 733 732 731 730 729 727 726 726 725 725 725 723 721 718 715 712 708 705 704 703 702 701 701 701 701 700 700 699 698 696 695 694 692 690 689 687 686 685 683 682 682 682 682 681 680 679 678 678 678 678 679 679
740 740 740 739 738 736 736 735 736 737 739 740 740 740 740 739 738 738 738 738 737 736 736 735 734 733 733 732 732 732 733 734 735 737 738 737 736 735 734 733 732 731 730 730 729 728 725 723 720 717 714 712 710 709 708 707 707 707 706 706 706 705 704 703 701 700 698 697 695 694 692 691 690 689 688 687 687 686 686 685 685 685 684 683 682 682 682
746 745 745 744 744 743 743 743 743 744 745 745 744 745 744 743 742 742 743 742 741 740 740 739 739 739 739 739 739 740 741 742 743 743 743 742 741 740 739 738 736 735 734 732 731 729 727 725 722 719 717 716 715 714 713 712 712 712 711 711 711 710 709 708 707 705 703 701 700 699 697 696 695 694 693 693 692 692 691 691 690 689 688 687 686 686 685
751 751 750 750 750 750 749 749 749 749 749 749 749 748 748 747 747 748 748 747 746 745 745 745 745 746 746 746 747 747 748 749 749 748 748 747 746 744 743 741 739 737 736 734 733 731 730 728 725 723 722 720 720 719 718 717 717 716 715 715 715 714 713 712 710 709 707 706 705 703 702 701 700 699 698 698 697 697 697 696 695 694 693 692 691 691 691
755 754 754 754 754 754 754 754 754 753 753 752 752 752 751 751 751 752 752 751 750 750 750 750 751 752 752 753 753 753 753 753 753 752 751 750 748 747 745 743 741 739 738 736 735 734 732 731 729 727 726 725 724 723 723 722 721 720 720 719 719 718 716 715 714 713 712 710 709 708 707 706 705 704 703 703 702 702 702 701 701 700 699 698 697 696 695
Wind_Speed
5 6 7 4 2 4 5 6 10 10 8 7 9 11 8 7 10 11 7 9 12 12 9 9 7 5 7 8 6 6 6 5 4 4 5 7 8 8 7 8 9 10 11 10 11 11 13 16 20 23 25 27 28 29 30 30 32 33 31 31 33 32 32 35 36 35 35 35 36 38 37 36 36 35 34 35 35 33 35 36 36 36 39 41 42 41 39
6 6 6 3 1 4 6 8 11 12 12 11 10 11 12 11 12 12 9 8 11 9 9 12 10 6 5 5 4 5 7 6 4 4 5 7 7 8 8 8 8 10 11 11 11 10 11 13 17 21 24 26 29 31 31 30 32 32 30 33 36 34 33 37 36 36 39 38 37 40 40 38 39 38 36 37 38 37 39 39 37 36 38 39 38 37 37
5 5 5 5 5 7 9 10 11 12 12 12 12 11 11 11 11 13 14 12 8 5 5 8 7 2 2 4 6 8 8 5 3 3 4 5 5 6 6 6 7 8 9 10 10 11 12 14 18 21 23 25 28 31 31 31 33 33 31 34 38 37 36 36 35 37 42 41 37 40 41 39 39 39 36 36 38 40 39 38 36 37 38 38 35 32 34
4 4 5 9 12 12 11 11 11 12 12 11 10 9 9 9 9 10 13 12 7 2 3 9 8 4 4 7 8 8 6 3 3 5 5 5 6 5 4 4 7 8 9 11 12 13 14 16 19 23 24 24 26 29 31 33 34 33 32 34 37 38 35 34 36 40 41 39 37 38 39 38 37 36 35 35 36 37 37 36 36 37 37 37 36 33 32
4 5 7 10 12 10 9 8 7 8 8 8 9 10 10 10 9 9 9 6 4 4 7 10 10 9 10 10 9 8 7 5 5 7 7 7 7 6 4 5 7 8 9 10 12 13 14 17 22 26 27 25 27 30 31 30 30 31 32 33 36 36 32 32 39 41 38 37 36 35 36 36 34 34 34 34 35 35 35 35 36 36 36 36 36 35 34
5 7 8 9 8 7 4 0 1 4 6 6 8 10 11 10 10 10 10 7 6 7 9 9 10 13 13 9 6 6 5 5 6 7 7 7 6 6 5 5 6 7 7 8 10 13 16 20 23 25 26 27 28 28 25 23 25 28 30 31 33 35 33 35 39 40 38 37 35 34 34 34 33 34 35 35 35 35 34 34 35 36 36 36 36 36 36
4 5 5 6 8 5 3 2 1 4 5 4 8 10 8 6 6 8 11 12 10 9 8 9 11 12 9 3 1 2 3 4 5 6 6 5 5 5 5 5 5 5 5 7 9 11 16 19 20 21 25 27 26 24 23 23 26 30 30 30 31 31 32 33 35 36 36 35 32 31 32 32 33 35 35 35 35 34 34 35 36 36 36 36 37 37 36
3 2 4 7 3 9 13 4 3 1 1 1 6 7 2 4 7 6 7 9 10 9 8 8 7 6 3 1 1 3 4 4 5 6 5 3 3 4 4 5 6 6 6 8 9 11 13 16 18 21 25 26 24 24 24 25 28 30 29 27 27 25 25 28 30 30 30 28 27 27 28 30 31 33 33 34 34 34 34 34 35 35 35 36 37 37 36
5 4 8 7 5 12 14 3 4 2 0 1 3 3 1 5 7 7 7 9 11 11 9 8 6 3 2 4 5 5 5 5 5 5 4 2 2 3 4 5 7 7 8 9 10 12 13 15 19 21 22 23 23 22 23 24 26 27 25 24 25 26 27 27 26 27 27 28 28 28 29 31 33 34 35 35 35 35 35 35 35 36 35 36 37 37 37
6 6 7 8 8 9 6 3 3 1 2 2 1 3 2 3 7 8 8 9 11 11 10 9 5 3 4 7 6 6 7 5 3 3 3 2 2 3 4 6 7 7 8 8 9 11 12 15 17 17 18 20 21 19 20 23 23 23 23 24 26 29 29 28 29 33 36 35 34 32 33 35 36 36 36 35 35 36 36 36 36 36 35 36 38 38 38
6 7 8 8 8 5 3 5 2 2 1 4 4 4 2 4 9 10 8 9 11 10 11 9 4 5 7 8 4 3 5 3 0 1 2 2 2 3 4 5 7 8 8 6 5 7 10 11 12 14 17 19 20 18 18 20 20 20 24 27 29 31 30 29 34 40 40 35 33 32 33 35 35 33 32 31 31 33 35 34 34 34 34 36 37 38 38
7 8 8 7 6 2 2 3 1 2 2 6 5 5 1 4 9 10 8 10 10 9 10 9 6 7 6 4 2 5 5 3 3 3 3 4 4 4 5 6 8 8 7 4 3 2 3 4 7 12 17 19 19 17 15 17 20 22 25 27 25 24 23 24 30 36 34 30 31 33 33 33 31 29 30 29 29 32 34 34 33 33 34 36 37 38 37
9 9 8 7 6 3 2 2 0 1 4 5 5 4 1 4 8 8 8 10 9 8 10 8 6 3 2 2 3 5 6 4 4 5 5 5 5 6 6 8 9 7 6 7 8 7 5 3 2 9 14 15 14 13 13 15 19 20 19 20 19 18 19 21 25 29 30 30 32 33 32 30 29 29 29 29 29 31 33 33 32 34 36 37 36 36 36
7 8 8 7 6 2 4 4 2 3 4 4 3 2 2 5 7 8 8 8 8 8 9 7 4 3 3 3 3 4 5 5 4 5 6 6 6 7 6 8 8 6 6 9 10 10 10 8 3 5 11 11 9 11 11 12 14 13 13 18 21 22 23 24 23 26 29 31 31 30 28 28 28 28 29 29 28 29 30 31 32 33 34 33 33 34 35
7 7 8 7 5 1 2 5 4 4 4 2 2 2 3 4 6 7 7 6 7 7 7 6 4 2 2 3 4 5 5 5 4 5 6 6 7 7 6 7 8 6 6 8 10 11 11 11 9 3 7 8 8 8 7 4 5 8 11 16 21 22 24 26 25 26 30 34 33 30 28 30 31 29 28 28 28 28 29 31 32 31 30 31 31 31 31
5 7 7 5 3 5 6 6 4 4 3 1 1 0 1 2 4 5 4 5 6 6 6 5 3 2 3 4 5 6 6 6 5 5 5 5 5 6 6 7 7 6 6 8 10 11 12 12 12 9 5 6 8 7 4 4 1 3 7 12 17 19 22 24 25 24 26 31 33 30 29 31 31 28 28 29 28 28 29 31 32 30 30 31 30 29 29
4 6 6 8 9 9 10 11 4 5 6 3 3 3 2 2 2 3 3 5 5 6 6 5 3 3 4 5 6 6 6 7 7 5 5 5 4 5 6 6 6 5 6 8 9 11 13 13 12 12 11 10 11 8 6 4 2 2 4 9 13 16 18 21 23 22 22 24 27 27 27 29 28 27 28 27 28 29 30 32 33 33 32 32 32 30 30
7 8 9 11 14 14 12 10 5 3 5 4 4 5 4 2 3 3 3 5 6 5 6 5 4 5 6 6 6 6 6 7 7 7 6 6 6 6 7 7 6 5 7 8 10 12 12 12 12 12 12 12 11 8 6 5 4 2 1 5 10 13 15 17 19 21 20 20 22 23 25 26 26 26 26 27 28 31 32 32 34 34 33 34 34 32 31
6 6 6 9 12 13 11 9 8 6 4 5 5 5 5 3 3 4 3 5 6 5 6 7 6 6 7 8 7 7 7 7 7 8 7 7 7 8 8 8 7 6 6 7 9 11 12 13 13 13 13 13 11 8 8 8 6 4 3 1 4 8 10 12 14 16 17 18 20 21 23 25 26 26 26 28 29 30 31 33 34 34 33 32 31 30 31
6 8 11 12 13 13 11 10 10 9 7 5 5 6 6 5 3 4 4 4 5 6 7 8 8 8 9 9 9 7 7 7 7 7 8 7 7 8 9 9 7 6 7 8 9 10 11 13 14 14 14 14 12 11 11 10 9 8 7 5 2 1 4 6 7 9 12 14 16 17 19 23 25 26 26 28 29 30 33 35 33 32 32 31 31 32 32
8 11 13 13 13 12 11 11 12 12 11 7 4 7 8 6 4 4 4 4 5 7 8 8 8 8 9 10 10 8 7 7 7 7 7 7 7 8 10 10 9 8 8 8 10 11 12 13 14 14 14 14 13 13 13 12 11 11 10 9 7 5 3 1 3 4 7 10 13 15 16 18 21 24 25 27 28 29 33 37 38 36 34 32 34 36 35
8 9 8 6 7 7 7 9 13 15 14 10 4 5 9 9 5 4 5 5 5 7 8 8 8 8 7 9 10 8 7 7 7 8 8 7 7 9 11 11 12 12 11 10 11 12 12 13 13 13 13 13 13 14 13 12 13 12 12 11 11 9 8 6 4 3 3 5 8 10 13 14 17 21 25 28 30 31 32 37 41 42 40 38 36 34 34
11 11 9 7 7 8 8 11 14 16 15 12 7 1 7 9 6 3 4 5 5 6 8 8 8 8 7 8 9 9 8 8 8 9 9 8 8 9 11 12 12 13 13 13 13 13 12 11 11 11 12 12 12 12 12 12 13 13 12 12 11 10 8 8 7 6 4 4 5 6 9 12 14 16 19 24 30 35 37 38 39 41 45 47 45 39 37
15 14 12 10 9 11 12 14 15 16 16 14 9 4 4 8 7 4 3 4 5 5 6 7 7 7 7 8 9 9 10 10 10 10 10 11 10 10 12 13 13 13 14 15 15 15 15 14 13 13 13 12 10 10 10 10 10 12 12 13 12 10 8 7 7 6 4 3 4 5 6 9 11 13 14 16 21 28 35 39 40 41 44 47 50 49 48
13 13 12 11 11 13 13 14 16 16 16 13 9 6 5 7 8 5 2 2 3 4 6 6 6 7 8 8 9 9 9 10 11 11 10 11 12 12 14 15 15 14 14 15 16 16 16 16 16 15 14 13 11 10 9 9 9 10 11 11 11 9 7 6 5 4 4 3 3 4 4 6 8 10 12 13 14 17 23 29 35 41 44 45 47 50 51
13 14 14 14 15 15 13 12 15 15 14 12 8 6 6 8 9 6 3 2 4 5 6 5 6 7 8 9 9 9 9 10 12 12 11 10 11 13 14 15 15 15 15 15 16 16 16 15 15 14 14 15 14 13 12 11 10 9 9 9 9 8 7 6 5 4 3 3 4 5 6 8 9 10 11 12 12 14 16 18 22 29 36 41 44 46 48
13 13 13 14 15 15 14 13 13 11 10 10 8 5 6 9 9 6 4 4 4 5 6 5 5 6 8 10 11 10 10 10 11 11 11 11 12 13 14 14 15 15 15 15 15 15 15 14 13 14 14 13 13 14 13 12 11 10 9 9 8 8 7 6 5 5 4 4 5 6 7 9 10 11 13 13 14 15 14 14 15 18 23 30 37 42 46
13 12 13 13 14 13 11 10 7 5 6 9 7 5 6 8 8 7 5 4 3 4 5 6 6 6 7 10 11 10 9 10 10 11 12 12 13 13 13 14 15 15 14 14 13 13 12 12 12 13 13 12 11 12 12 12 11 10 9 9 8 7 7 6 5 5 5 5 5 5 6 8 9 10 11 11 11 11 11 11 13 16 20 26 32 38 43
13 12 12 14 15 12 6 3 3 5 7 8 6 4 5 8 9 8 6 5 4 2 2 4 6 8 8 9 10 9 8 9 10 11 13 14 14 13 12 11 13 14 15 15 15 14 14 14 14 14 13 12 11 11 10 11 10 9 9 9 8 7 6 5 4 4 5 5 4 4 5 7 8 8 8 7 5 5 6 8 9 11 17 23 26 29 35
10 10 9 10 12 11 6 4 6 8 9 8 7 5 4 7 9 8 6 6 5 4 2 2 5 8 9 9 9 8 8 9 11 13 14 15 14 13 12 11 11 13 14 16 18 18 17 16 16 15 14 12 11 10 9 9 9 9 9 8 7 7 6 4 3 3 4 4 5 5 7 8 8 8 7 6 3 2 4 5 4 5 8 12 13 13 16
9 10 9 7 7 9 8 6 6 6 6 7 8 7 6 7 7 7 6 5 5 5 4 4 6 8 9 9 9 9 9 11 12 13 14 15 14 14 15 15 14 12 13 15 19 21 20 18 17 17 15 13 11 10 9 9 9 9 9 8 7 7 7 6 5 4 4 5 5 6 7 8 8 8 9 8 7 6 7 7 7 5 4 7 10 9 5
8 7 6 6 7 9 9 7 7 7 6 7 9 9 8 7 7 6 6 6 6 7 7 7 7 7 7 8 9 10 10 11 12 12 12 12 13 14 15 16 16 16 16 17 19 22 22 20 18 17 16 14 12 10 9 9 9 9 9 8 7 6 6 6 6 5 5 6 6 6 7 8 7 8 8 8 8 8 8 9 10 9 8 12 15 12 6
5 4 7 10 10 12 11 8 8 9 8 7 7 7 7 6 6 6 6 7 8 8 7 8 8 7 7 8 9 10 10 10 11 10 10 12 13 13 13 14 16 17 18 18 19 21 22 20 18 17 17 16 14 12 11 10 9 9 9 8 7 6 7 7 7 6 5 6 7 7 7 7 7 8 7 6 7 8 8 8 10 10 12 16 20 18 10
5 5 8 10 11 13 13 10 8 8 7 4 3 4 5 5 6 8 8 9 9 9 9 10 10 10 10 10 10 11 10 8 8 7 8 10 11 11 10 11 12 15 19 21 21 21 21 19 17 15 16 17 16 15 13 11 10 9 9 8 8 7 7 8 8 7 6 7 7 7 8 8 8 8 7 6 6 7 8 8 9 9 11 12 14 17 20
5 8 9 8 7 8 9 9 7 7 7 5 5 5 6 7 9 10 10 11 12 12 14 15 15 14 13 12 11 10 10 9 7 7 8 9 10 10 11 12 12 15 21 25 25 22 20 19 18 15 15 17 19 19 17 14 11 11 9 8 8 7 7 7 7 7 6 7 8 7 8 8 8 7 7 6 6 6 7 7 8 9 10 11 12 13 19
6 7 6 6 6 7 8 7 6 7 7 6 5 5 6 8 9 9 9 12 14 14 16 18 17 14 13 12 11 10 10 10 10 10 12 12 12 14 16 18 18 19 21 23 24 22 20 20 20 18 18 19 21 21 20 16 12 11 11 9 8 8 7 7 7 7 7 7 8 8 8 8 9 9 8 7 6 6 7 8 8 8 9 11 12 14 14
10 9 7 5 6 7 5 4 4 5 6 6 6 6 7 9 10 11 12 13 13 14 16 17 15 13 12 13 14 13 13 12 13 15 16 15 15 17 20 20 20 19 17 16 18 19 18 19 20 20 21 22 21 22 22 19 14 13 13 12 11 10 10 9 9 9 9 9 9 9 9 9 10 10 9 8 6 5 5 7 8 8 7 7 8 9 9
13 12 10 9 9 8 5 5 7 7 8 10 11 10 10 11 13 16 16 15 15 18 19 19 18 17 15 15 16 16 15 14 15 18 20 19 19 21 22 21 20 18 15 14 16 18 19 21 22 22 22 21 21 21 22 20 17 16 16 15 14 14 13 13 13 12 12 11 10 10 10 10 10 10 10 9 8 6 6 6 6 7 6 5 4 5 6
16 14 12 12 13 11 10 11 13 12 12 13 11 10 12 15 18 19 19 17 16 18 19 19 19 18 16 15 15 16 17 17 17 19 19 19 20 21 22 22 22 20 18 17 19 20 22 24 24 24 23 21 20 22 23 20 18 18 18 19 19 18 17 16 16 15 14 13 13 12 12 11 10 9 10 10 9 8 8 8 7 5 5 5 4 3 5
15 14 14 15 14 12 12 13 14 17 20 19 15 13 16 20 21 20 18 17 18 18 18 18 18 16 14 14 15 16 18 20 20 19 18 17 19 19 19 20 24 24 22 22 22 23 25 26 24 22 22 21 21 24 25 23 21 20 19 18 19 19 18 18 18 18 17 16 16 15 14 12 11 11 10 9 9 8 8 8 7 6 5 4 5 5 5
15 15 16 15 13 12 13 15 17 20 25 26 24 24 26 27 24 20 17 17 19 21 20 19 18 16 15 17 19 20 21 22 22 21 20 19 18 15 13 15 21 23 24 25 25 25 27 28 26 23 21 21 21 25 28 28 26 23 21 20 20 19 19 18 18 18 19 18 17 17 17 15 14 13 12 10 10 9 8 7 6 5 5 6 6 6 6
15 16 16 15 14 16 18 19 18 19 23 26 29 31 31 28 25 22 20 20 21 21 20 20 19 18 18 19 20 21 20 20 21 22 23 23 21 16 12 14 20 23 25 27 27 26 26 26 26 24 23 23 25 31 34 31 26 24 23 23 23 22 21 21 20 19 18 17 17 17 18 17 16 15 13 12 12 10 8 8 8 6 4 7 9 7 6
15 15 14 12 13 17 20 20 19 18 20 24 28 30 29 27 26 24 22 21 21 19 18 19 20 19 19 19 19 18 17 16 17 19 21 23 24 22 17 16 20 24 26 26 26 26 25 24 24 26 30 32 35 39 38 33 27 25 24 23 22 22 22 23 23 21 20 19 18 18 19 19 18 16 14 15 16 12 9 9 10 8 5 5 7 6 6
16 16 14 13 15 18 20 20 19 17 17 21 26 28 27 26 25 22 20 20 19 18 17 18 19 19 19 20 18 16 15 15 15 16 16 17 20 22 22 19 20 24 26 25 24 25 25 24 25 30 36 38 40 41 38 32 28 27 26 24 23 22 22 22 22 21 21 21 21 21 22 23 23 20 18 19 18 14 11 11 12 9 6 6 6 4 5
17 18 19 19 19 20 19 18 16 15 17 22 27 27 24 22 22 22 21 21 20 20 19 19 19 18 19 19 19 18 18 18 18 17 15 13 12 16 19 20 20 23 25 25 24 23 25 28 31 35 37 39 40 39 34 28 27 27 26 25 25 24 23 22 21 21 22 23 25 26 27 27 27 25 24 23 22 19 17 17 17 15 12 11 9 5 3
17 19 21 21 19 18 17 17 17 19 22 23 23 21 20 20 20 21 22 22 21 20 20 20 20 19 18 17 18 19 20 21 21 20 18 15 13 14 18 20 22 23 25 25 24 22 24 29 34 37 37 38 38 33 28 26 27 27 27 26 26 25 24 23 22 22 23 25 27 30 31 31 29 27 26 25 25 24 23 22 21 19 16 14 12 9 7
17 18 19 18 17 17 17 18 19 21 21 17 13 14 16 18 19 20 20 20 20 20 20 20 21 21 21 20 18 17 16 16 17 18 17 15 14 16 19 21 22 23 24 24 24 24 25 29 33 36 38 38 36 30 27 26 27 26 26 26 25 24 24 23 22 22 22 23 24 27 30 32 33 32 30 30 29 28 26 25 24 22 20 17 15 12 10
18 17 17 17 17 18 18 19 19 18 16 14 12 13 15 16 18 19 19 19 19 20 20 20 21 21 22 23 22 20 17 15 13 13 15 15 14 15 17 20 22 23 22 21 21 24 27 29 31 33 34 34 31 27 26 27 26 25 25 25 25 24 24 24 23 22 22 23 23 24 25 27 30 31 32 33 33 32 30 28 27 25 22 20 19 16 14
18 17 17 17 18 18 18 17 15 13 12 13 14 13 13 14 16 17 17 17 17 18 19 19 20 21 21 22 22 21 21 18 14 12 13 15 15 15 16 18 21 23 21 18 17 20 24 27 29 30 30 28 25 24 24 24 24 24 23 23 23 23 24 25 26 25 24 23 24 24 23 24 25 27 28 30 32 34 33 32 31 28 26 24 23 22 20
17 16 16 16 17 17 16 14 12 11 12 12 12 11 11 13 14 14 14 14 15 16 17 18 19 19 19 19 19 18 18 17 15 14 14 15 17 17 17 18 20 22 22 19 17 18 20 23 25 26 25 24 22 22 22 22 22 22 22 21 21 21 22 24 26 27 26 24 23 24 24 23 24 25 25 26 28 30 32 33 32 31 30 29 28 27 26
14 14 14 14 15 16 17 15 14 13 14 13 12 12 13 14 14 14 14 14 14 14 15 16 17 17 16 16 15 15 15 14 14 14 14 14 15 16 17 19 21 22 22 21 19 18 19 20 22 23 23 21 20 21 22 22 21 22 22 21 21 21 22 22 23 24 25 25 24 25 25 24 24 24 24 24 24 24 26 28 29 31 32 32 31 30 29
15 14 13 13 14 16 17 17 17 16 15 15 14 14 14 14 14 14 15 16 15 13 13 13 14 14 14 14 13 13 14 14 14 14 14 14 14 15 16 18 19 20 20 19 19 19 19 20 21 22 22 21 19 20 21 21 21 21 21 21 20 21 23 23 23 22 23 24 25 25 26 26 26 24 24 24 24 23 23 23 24 26 28 30 31 31 30
Wind_Direction
341 315 308 313 289 269 267 274 278 278 278 271 254 250 240 196 217 244 216 190 227 238 223 227 234 227 236 245 255 276 290 285 253 204 201 220 231 233 226 216 211 211 212 209 206 204 199 198 198 196 198 199 197 198 200 198 199 200 194 190 191 191 193 198 201 199 197 197 199 200 200 201 202 202 202 204 204 205 208 209 209 212 216 220 222 222 222
322 314 312 320 308 291 285 273 268 270 269 264 256 257 258 252 256 267 261 227 225 231 231 231 232 238 254 267 295 289 276 270 253 221 221 223 223 228 232 228 220 217 215 211 208 203 197 198 199 198 200 200 199 201 201 197 199 200 195 194 197 198 200 202 202 199 199 201 203 203 204 204 205 204 204 205 207 209 212 212 211 211 215 218 219 218 219
308 318 323 318 315 306 291 276 262 256 258 257 250 244 250 258 262 266 270 267 250 239 262 258 248 261 297 271 262 257 254 251 257 260 257 253 242 229 226 240 243 233 226 218 209 203 200 200 200 199 201 200 201 203 202 200 200 199 196 197 199 202 205 203 201 201 204 206 205 206 207 207 206 206 205 206 209 212 214 213 211 212 215 215 215 214 216
292 325 336 325 323 313 286 266 256 249 246 248 251 243 233 236 245 252 256 260 259 238 259 265 260 245 235 239 244 249 249 238 243 256 258 261 264 247 207 224 243 240 232 223 213 210 208 203 201 202 201 199 201 204 203 202 200 197 196 197 200 204 206 202 201 203 204 203 204 204 205 205 204 204 204 206 208 210 211 211 210 212 213 214 214 214 215
290 317 328 327 323 305 273 257 255 255 255 259 260 252 241 233 236 246 250 255 260 220 216 238 250 245 237 235 237 245 247 232 228 239 244 248 262 267 241 226 234 237 235 226 219 216 211 204 204 204 200 197 200 204 204 201 197 195 196 197 200 204 203 199 201 203 201 201 202 202 202 202 201 201 203 205 207 208 209 209 209 211 212 212 214 215 216
289 309 323 318 291 260 247 236 271 269 272 277 275 270 266 253 239 245 259 263 252 232 220 220 233 242 245 243 240 243 244 234 227 232 238 241 255 269 267 254 246 241 242 238 227 221 216 214 210 205 202 202 202 202 201 198 197 199 200 200 202 204 201 200 202 202 200 201 200 199 199 197 197 200 203 206 207 208 209 209 210 212 212 212 214 216 216
276 307 315 279 246 248 314 33 84 269 256 263 290 285 280 286 278 262 258 253 246 240 230 221 228 241 252 269 290 243 239 240 237 237 237 234 244 261 271 276 275 268 263 258 245 231 224 220 213 203 203 206 203 198 195 193 197 204 207 207 208 206 203 202 202 200 200 200 198 196 195 194 196 200 203 205 207 208 209 211 213 214 213 213 215 216 215
246 258 249 238 254 326 316 311 92 13 254 274 297 274 220 40 11 337 294 281 279 275 259 248 251 261 278 335 189 213 226 233 239 248 248 236 246 269 285 290 292 291 280 270 261 250 236 221 210 206 206 204 200 198 197 193 196 201 203 206 209 206 202 202 201 199 199 198 196 195 194 194 198 201 203 205 206 206 209 212 215 216 215 215 217 217 216
218 224 243 252 300 311 296 276 91 46 248 31 323 272 166 48 23 356 333 314 304 302 298 289 282 273 261 255 228 201 208 228 241 255 270 278 279 290 299 297 294 291 284 275 264 254 241 223 213 209 205 199 194 194 194 192 194 195 196 200 203 202 202 201 198 195 196 196 196 196 195 196 200 202 204 205 205 204 207 210 213 216 216 217 218 218 217
211 225 249 256 263 267 250 154 101 342 230 202 222 234 237 39 26 359 336 318 309 312 315 307 285 207 229 254 239 190 184 205 235 254 273 293 304 309 315 310 305 304 299 284 263 244 234 227 217 206 197 190 187 187 189 190 190 189 193 199 200 201 201 196 192 196 200 199 196 195 195 198 201 203 204 205 204 204 206 209 211 213 215 217 218 218 218
219 220 233 238 244 244 151 138 161 316 200 177 190 231 241 31 10 348 333 322 316 313 314 310 270 203 223 243 236 147 144 154 203 282 292 320 326 324 330 327 321 319 315 304 262 223 222 225 214 199 190 185 185 188 189 187 186 188 196 202 202 202 199 194 196 202 204 200 196 196 199 202 203 204 204 205 205 206 208 210 211 213 215 217 218 218 219
228 227 239 241 244 261 105 139 242 320 152 164 198 246 260 19 350 336 330 324 319 316 314 299 243 219 230 244 347 44 61 53 20 351 328 325 325 332 343 337 326 323 330 359 59 134 214 230 209 197 190 186 189 192 187 186 192 198 203 205 202 199 195 193 199 204 204 200 198 200 202 204 204 204 205 205 205 208 211 213 214 216 217 218 218 219 218
228 229 240 248 254 262 205 194 256 104 155 185 233 252 308 343 327 327 324 318 322 323 310 283 244 250 321 324 346 23 42 37 13 345 325 319 321 328 338 335 331 339 13 41 54 50 29 8 220 197 189 186 189 187 181 190 201 205 206 205 201 198 196 197 202 205 204 203 203 204 205 205 204 206 207 207 206 209 213 214 215 217 218 219 220 220 218
227 230 243 257 270 264 178 174 140 140 191 233 272 308 338 320 323 331 322 317 334 332 310 291 281 315 357 351 354 32 44 39 18 345 333 330 324 324 327 331 334 350 27 45 51 45 35 31 38 188 189 186 181 179 184 200 209 209 206 204 204 202 201 200 202 203 204 205 206 205 205 204 205 208 210 209 208 209 213 216 217 220 221 221 221 222 221
221 230 235 241 260 323 145 173 178 188 216 264 343 351 333 334 337 329 315 322 340 332 316 309 301 302 13 16 22 41 42 35 20 351 342 333 324 325 326 332 344 2 37 53 54 47 41 39 41 85 178 176 164 165 170 183 212 214 208 205 204 203 202 201 201 202 205 207 207 205 203 204 206 208 207 207 207 207 210 213 217 220 221 222 223 224 223
223 219 220 233 289 330 316 278 233 170 152 120 117 164 341 3 346 324 317 330 338 333 324 320 321 1 43 41 35 32 33 30 18 2 353 341 329 330 330 337 353 17 58 68 61 54 50 48 45 48 76 116 119 117 97 67 81 203 208 206 205 204 205 206 207 206 206 208 208 206 205 205 207 207 205 205 205 205 206 210 214 217 218 217 219 223 223
261 254 268 296 305 307 307 303 289 136 134 156 160 127 67 16 341 334 326 326 337 348 339 331 356 23 23 37 37 27 24 24 19 16 10 1 355 352 349 354 6 34 65 73 71 65 59 56 55 53 57 75 85 76 57 54 79 138 194 204 207 208 209 210 212 212 210 210 210 209 208 207 207 209 207 205 206 208 208 210 215 219 219 216 214 216 219
300 286 265 265 275 283 293 298 284 162 148 160 148 115 88 40 341 340 340 334 341 0 1 358 18 28 22 29 34 30 28 23 19 21 18 16 19 13 7 9 16 37 62 71 74 73 66 61 63 62 61 68 72 66 53 50 52 59 164 197 207 214 215 215 215 214 214 214 213 213 212 210 211 212 210 210 213 213 212 214 217 221 223 221 217 215 214
300 288 253 251 271 287 298 293 277 260 222 183 149 117 101 81 5 341 352 349 345 5 24 17 13 21 26 25 21 23 26 20 16 19 20 21 24 23 21 18 16 34 59 66 71 72 68 64 64 63 62 62 61 57 52 46 42 46 62 140 205 218 221 222 220 217 217 218 218 216 214 213 216 216 214 214 216 215 215 218 220 222 223 223 221 219 219
268 271 278 284 288 294 297 286 276 276 264 218 153 121 114 103 55 0 359 8 7 16 24 21 15 17 20 18 12 12 17 14 9 11 16 21 25 28 31 28 26 39 55 64 72 73 69 68 68 65 61 57 51 47 43 38 41 48 50 49 55 229 233 232 228 225 226 227 227 225 222 219 219 219 216 215 217 217 217 217 219 222 224 225 225 224 224
279 274 277 283 283 281 282 273 269 275 277 261 181 130 120 101 67 26 15 25 30 28 24 19 18 16 14 12 8 5 12 12 0 355 5 18 30 36 38 38 39 42 48 59 69 70 70 71 73 73 70 62 55 50 45 42 45 50 50 51 51 44 26 291 238 238 237 233 232 235 234 230 227 225 222 220 219 221 222 221 221 222 223 224 225 223 223
272 263 265 282 288 283 285 284 281 282 280 273 250 134 113 96 67 25 17 23 30 35 32 23 17 13 11 10 5 359 6 12 3 356 0 11 27 36 40 44 47 46 47 54 60 65 69 70 71 76 77 71 65 62 59 58 59 61 63 63 59 52 46 40 27 359 295 258 250 246 244 243 240 237 236 233 231 231 232 230 229 228 227 228 227 222 220
261 266 277 296 296 288 288 289 290 289 279 263 253 191 107 101 86 37 15 17 17 29 35 29 23 17 9 8 7 0 359 7 10 9 8 9 14 24 33 40 43 43 46 52 58 63 67 68 70 73 74 73 72 71 69 70 71 74 78 79 74 68 61 52 41 30 8 323 304 286 268 262 260 254 251 247 243 241 241 239 237 234 233 234 233 228 224
266 273 279 278 272 272 276 279 286 290 281 258 232 189 117 109 106 88 35 12 7 24 38 34 28 22 15 17 17 4 357 2 8 9 12 16 17 21 29 33 32 30 33 39 46 53 59 64 67 70 72 74 76 74 71 74 78 80 81 80 79 75 70 64 55 42 28 2 333 314 294 284 280 275 272 267 258 252 249 245 243 240 238 237 236 235 232
264 270 271 265 263 267 274 278 280 280 275 260 229 187 152 127 119 115 90 21 0 19 39 36 26 25 26 27 22 9 359 359 2 5 15 25 28 29 31 31 30 26 24 25 29 36 43 49 53 56 59 59 58 58 58 61 72 80 81 80 80 76 69 62 54 39 27 10 337 315 301 291 286 281 277 273 271 269 264 258 252 249 246 242 239 238 235
258 264 267 265 265 265 265 269 270 261 252 249 239 206 160 129 122 120 101 46 10 12 28 34 28 29 35 36 30 19 9 3 6 15 24 30 33 34 33 32 33 32 29 27 26 27 30 33 35 37 38 40 40 40 42 46 53 63 70 73 75 70 62 55 46 35 17 350 329 319 312 304 297 293 286 279 277 278 277 273 265 258 254 251 248 244 241
253 254 257 259 261 258 245 241 251 249 233 234 236 207 151 123 114 111 89 56 25 9 13 24 31 37 40 39 35 29 22 15 17 26 31 31 32 33 34 37 41 42 40 37 32 29 29 30 33 33 28 27 29 31 33 39 46 52 58 64 66 62 56 52 46 37 22 2 348 334 323 315 309 303 299 295 292 291 290 289 287 282 274 266 258 253 248
252 247 245 245 251 254 241 228 235 247 234 231 225 190 145 123 116 117 112 93 59 17 7 15 30 43 45 40 36 34 30 25 24 31 33 30 29 32 37 43 48 51 52 49 42 38 37 37 41 41 32 23 22 22 22 29 38 46 51 55 57 55 49 44 41 37 31 27 18 355 334 325 319 313 310 307 306 311 315 313 306 297 287 278 269 260 252
251 248 241 237 242 249 245 200 195 221 226 216 196 171 154 140 132 132 135 133 119 85 25 7 26 46 53 51 45 37 28 25 26 31 34 34 34 35 38 45 52 55 55 51 44 41 42 42 42 39 29 19 17 14 13 19 30 39 44 44 44 43 36 29 27 31 34 41 43 33 16 2 350 340 334 327 323 325 317 303 294 288 283 279 272 258 247
246 248 247 241 236 228 208 180 188 200 202 188 167 162 164 149 140 138 142 146 139 120 88 18 39 56 62 61 53 40 29 30 32 34 37 39 40 39 39 44 51 50 46 41 38 38 40 41 40 35 24 14 11 9 8 15 26 35 39 40 40 39 34 26 19 20 31 46 54 51 40 24 13 10 9 5 3 339 311 299 295 301 306 310 309 291 264
255 257 253 244 222 200 190 188 188 186 189 180 169 165 166 161 153 149 145 141 136 124 105 75 63 65 66 69 66 55 46 45 43 41 41 42 42 44 45 48 52 51 42 37 36 37 38 39 37 33 25 18 13 11 12 19 27 33 33 31 31 31 28 26 19 12 22 41 47 50 47 36 27 31 37 36 34 21 12 17 16 14 34 35 19 8 354
260 255 222 192 187 190 187 183 178 177 183 187 178 170 170 169 161 156 150 138 127 122 110 91 79 74 72 76 76 68 59 53 47 41 38 37 37 40 45 50 54 54 48 42 38 37 37 37 35 31 27 26 24 22 21 25 30 32 29 23 19 14 9 8 3 359 18 37 39 42 49 48 48 55 58 53 41 24 18 25 21 15 42 63 60 54 48
233 212 174 167 178 188 185 179 177 174 177 190 187 172 167 165 151 140 139 131 121 117 110 100 97 96 92 88 81 72 66 59 48 35 25 23 23 25 36 49 55 54 50 46 41 38 35 33 34 35 34 33 32 30 31 33 34 31 26 19 13 4 354 353 350 346 8 38 42 45 54 59 60 58 54 48 43 30 21 28 29 20 33 55 66 72 72
195 181 171 171 178 179 173 167 168 166 166 187 192 161 155 156 143 134 133 128 120 115 111 110 112 113 108 98 88 80 73 65 52 32 18 19 20 19 25 41 52 55 53 48 43 39 33 28 30 36 38 37 36 34 33 35 36 31 24 18 12 2 352 350 350 348 4 28 38 47 61 64 60 52 39 30 42 46 35 32 35 33 37 50 68 91 105
166 165 165 164 166 166 162 156 153 155 160 170 177 170 164 153 142 137 133 126 120 117 116 115 115 113 106 97 89 82 74 66 58 46 34 29 26 23 26 32 38 47 50 47 42 40 36 32 34 40 42 41 39 36 34 35 37 33 28 21 18 15 7 0 356 353 4 22 27 37 55 63 61 58 49 36 38 55 58 48 38 33 36 39 46 71 96
106 124 134 139 139 144 150 147 148 158 164 160 160 159 144 132 130 128 121 116 114 114 113 111 107 101 94 86 80 74 68 65 62 55 46 39 33 34 40 42 39 42 48 46 39 35 35 35 37 42 45 44 41 37 35 36 37 35 32 29 26 25 23 19 16 12 14 25 29 30 44 58 58 57 57 50 40 49 68 72 59 40 31 31 36 48 70
78 82 80 82 101 121 141 151 151 156 145 121 103 92 95 104 108 103 99 100 102 102 102 101 97 91 85 80 76 71 66 63 61 57 51 44 42 44 47 44 39 40 43 38 27 23 24 28 33 38 42 43 40 37 37 40 42 41 39 35 32 32 31 29 28 25 21 25 30 29 34 45 48 44 47 51 48 47 65 79 81 72 55 38 36 42 46
56 68 74 73 74 74 71 74 82 88 94 95 89 78 76 86 92 91 88 88 91 94 95 93 90 87 83 79 76 71 63 56 56 58 56 51 50 53 52 46 39 38 35 28 21 20 21 25 31 36 37 36 36 37 39 42 45 45 41 36 33 33 33 31 30 27 23 23 28 31 33 40 44 43 44 46 45 45 54 65 77 88 89 80 66 56 45
38 45 54 61 63 57 51 60 66 66 70 79 83 80 79 80 80 80 79 78 81 86 88 85 82 81 79 76 73 68 59 51 49 53 53 50 50 54 53 44 37 34 32 30 31 28 24 25 30 33 32 30 36 42 44 44 45 45 42 39 37 36 36 36 34 31 28 27 27 29 33 37 42 48 51 50 50 55 63 66 69 79 92 102 107 90 67
38 40 47 54 58 55 54 61 63 59 60 65 67 68 70 71 69 68 68 68 69 71 71 75 79 78 75 74 73 67 60 53 48 45 44 44 46 50 48 38 31 28 29 33 35 32 28 27 28 29 28 28 37 48 52 51 50 48 43 40 38 36 36 38 37 35 34 33 30 29 30 31 34 44 53 56 56 59 67 75 80 86 101 118 127 130 128
37 41 47 53 56 55 55 58 59 57 57 57 56 56 59 62 62 59 56 58 62 62 62 69 78 78 74 74 74 69 64 59 52 47 47 48 47 48 47 36 26 23 28 36 37 34 32 31 28 27 28 29 38 51 57 56 53 49 45 42 39 35 31 31 32 31 32 34 35 35 35 34 34 40 47 52 52 50 54 65 74 86 110 119 119 128 143
38 41 46 50 54 54 51 49 49 51 51 51 52 53 55 57 60 60 56 56 61 61 60 63 70 72 71 72 72 69 66 63 59 55 54 53 51 49 48 37 25 24 32 40 39 36 36 34 30 30 35 39 46 55 58 55 49 46 45 43 41 39 35 33 30 26 24 25 30 35 38 39 39 39 41 48 50 45 44 52 50 46 80 113 120 131 149
42 45 48 50 56 61 61 57 54 53 51 50 53 56 57 57 60 63 61 58 57 56 54 55 58 60 63 66 67 65 61 59 59 59 60 57 52 48 45 37 30 30 37 42 41 39 38 34 32 39 48 53 56 58 57 52 45 43 42 40 38 38 37 37 36 32 26 23 23 26 29 33 33 30 33 44 48 42 35 44 47 37 43 92 115 132 147
39 44 48 49 54 61 64 62 59 60 58 55 56 57 58 58 58 59 58 56 53 48 47 50 52 54 56 60 61 59 53 49 50 54 58 57 50 42 37 36 37 38 41 43 44 43 39 34 38 48 55 58 59 59 56 50 45 44 42 40 38 37 36 35 34 34 33 31 30 30 32 34 34 31 32 39 44 39 32 39 45 42 41 57 80 117 143
36 40 45 48 51 56 61 62 63 67 68 65 60 55 52 52 53 52 51 52 50 46 43 44 47 51 56 61 63 62 58 54 50 49 52 57 48 35 31 36 41 43 44 46 47 45 41 42 48 54 57 57 57 57 53 48 46 45 43 41 40 39 38 35 33 33 35 37 39 41 41 40 40 39 38 40 41 39 39 43 47 45 42 39 41 52 91
37 40 43 45 47 52 59 65 67 66 64 64 60 52 46 46 49 50 50 50 51 50 48 46 46 47 51 57 62 63 61 59 54 49 51 57 54 42 40 45 49 49 49 49 47 43 42 48 54 56 56 56 55 53 49 47 47 45 43 42 41 39 38 37 37 36 37 40 43 46 48 48 47 45 43 42 41 40 40 44 47 48 47 42 36 33 39
39 40 40 41 43 46 50 55 59 59 58 59 60 53 47 47 50 51 51 52 54 54 54 52 49 46 46 49 53 55 57 60 56 48 45 49 52 47 45 49 53 55 55 53 50 48 50 55 57 57 57 56 54 50 46 47 47 46 44 43 41 39 38 38 38 39 39 40 42 46 49 51 52 51 49 47 46 44 43 42 43 45 47 49 46 43 42
42 42 40 41 44 44 44 47 52 54 54 58 62 58 52 51 53 51 50 51 54 55 54 51 48 45 45 48 50 49 50 56 57 45 35 37 45 46 42 45 53 59 59 53 50 52 57 60 61 59 57 55 52 48 47 47 47 46 46 45 43 41 40 39 38 38 39 39 40 42 45 47 49 50 50 50 51 51 49 47 45 44 46 50 52 53 54
40 41 41 41 40 40 42 47 51 52 53 58 59 56 52 54 55 51 46 47 52 54 51 48 45 43 43 47 49 48 47 51 55 49 39 38 44 47 43 43 52 58 58 50 43 46 52 57 60 59 55 51 47 45 46 45 45 45 45 45 44 44 44 43 43 44 42 40 40 42 43 44 45 46 47 48 50 52 53 53 52 50 50 51 52 54 54
39 41 43 43 42 42 44 47 48 47 47 49 51 51 52 57 57 50 42 45 53 56 54 50 47 44 43 46 48 48 48 49 51 52 49 47 48 49 48 48 52 55 54 49 42 39 41 45 50 52 50 46 43 43 43 43 44 43 43 42 43 43 43 44 46 47 45 42 42 42 42 43 44 45 45 45 46 48 51 53 53 53 52 52 52 52 53
43 44 48 51 52 51 50 48 47 46 46 46 49 53 57 61 61 53 45 45 51 56 56 55 51 45 43 46 47 47 48 50 51 52 53 53 51 51 51 53 55 56 54 48 42 38 36 36 38 41 42 41 41 42 43 44 44 44 43 41 41 41 40 40 42 43 44 44 45 45 44 43 43 43 44 44 44 44 46 48 49 51 52 53 53 54 55
46 45 47 52 56 56 54 50 46 45 45 47 49 52 56 60 62 57 49 45 47 51 54 56 52 46 41 42 45 46 46 48 49 50 50 51 50 49 49 49 51 51 49 45 41 40 40 39 37 38 39 39 40 41 42 44 45 45 44 43 43 44 44 43 43 43 43 44 45 45 46 47 47 46 45 45 44 43 44 44 46 48 51 52 54 54 55